Tracking 35275 objects as of 8-Sep-2026
HD Live streaming from Space Station
objects crossing your sky now

PEGASUS DEB


PEGASUS DEB is no longer on orbit


NORAD ID: 25378
Int'l Code: 1994-029ADQ
Launch date: May 19, 1994
Source: United States (US)
Launch site: AIR FORCE WESTERN TEST RANGE (AFWTR)
Decay date: 1998-09-11

Note: This is SATELLITE DEBRIS
Your satellite tracking list
Your tracking list is empty




NASA's NSSDC Master Catalog

Two Line Element Set (TLE):
1 25378U 94029ADQ 98252.37348519 +.06477114 +00000-0 +97097-1 0  9998
2 25378 082.2033 218.3478 0110872 066.9199 294.4902 15.44000987056310
Source of the keplerian elements: AFSPC